Dewpoint
47 47 48 48 50 52 55 56 56 57 56 55 56 55 54 52 52 52 52 52 51 51 51 53 53 54 50 45 45 47 51 51 55 55 52 51 46 44 39 40 41 41 41 42 43 44 45
45 45 45 46 48 49 50 51 57 56 56 55 56 56 55 53 52 52 52 52 52 51 50 53 53 54 48 33 40 44 44 45 53 54 53 51 48 47 44 42 40 40 40 39 39 38 39
44 45 45 45 43 43 46 48 51 54 56 55 55 55 56 54 53 53 52 52 53 52 51 50 53 51 46 38 42 43 43 44 45 50 49 51 50 46 44 42 43 42 39 39 39 38 37
44 43 43 44 44 45 45 45 48 50 55 56 55 55 56 54 54 53 52 52 53 53 52 50 51 50 39 44 46 44 44 41 42 47 44 47 46 42 41 42 39 38 37 34 35 36 38
39 40 41 42 42 44 43 43 45 46 50 54 56 54 55 54 54 54 54 54 53 53 52 51 48 45 35 42 42 43 42 39 40 41 40 41 40 38 38 37 35 35 31 33 33 35 37
36 36 36 39 41 42 43 44 43 44 46 50 54 55 54 55 54 54 53 52 50 51 52 50 46 41 41 37 41 41 42 41 39 39 38 38 37 35 35 33 23 27 30 32 32 33 34
35 36 35 37 40 41 40 42 42 44 44 48 51 53 53 54 54 54 51 48 42 41 47 41 39 38 36 41 40 40 41 39 39 38 35 38 34 30 32 33 33 34 33 32 33 34 33
35 38 37 37 38 40 41 42 42 43 44 46 49 52 55 53 55 54 48 41 40 39 36 43 43 40 39 40 37 39 40 37 37 35 36 34 31 32 32 33 34 34 32 31 31 30 31
36 36 34 36 36 37 40 41 42 43 44 45 48 52 53 52 54 52 46 42 45 43 34 37 41 41 41 41 38 38 39 37 35 35 34 30 30 32 32 32 31 31 31 29 28 29 29
34 36 35 36 35 34 39 41 41 43 45 46 47 50 51 53 52 49 45 46 45 43 31 32 38 39 42 41 38 40 40 37 35 33 34 33 34 32 33 32 33 29 32 31 30 29 24
37 37 36 36 35 34 38 40 43 43 43 44 46 48 52 54 49 46 45 46 47 42 20 32 37 43 42 38 36 37 40 37 34 34 33 31 33 32 31 31 33 30 30 29 29 29 28
37 38 37 36 34 37 38 40 43 43 44 44 47 48 50 53 48 46 48 47 45 27 21 33 36 37 38 38 37 37 38 38 40 35 35 31 35 33 31 31 31 32 31 30 30 27 21
36 38 37 36 35 37 38 39 41 44 45 46 48 48 50 51 45 48 48 44 30 23 30 31 32 34 32 33 34 34 35 35 33 30 30 34 33 34 34 31 33 31 29 22 20 21 17
37 38 38 36 35 37 38 38 43 45 47 47 48 49 50 50 50 48 46 35 24 24 28 34 33 33 31 32 32 34 34 32 35 33 27 26 23 34 34 31 27 31 29 21 14 15 14
37 39 39 37 36 35 36 37 45 45 46 48 48 48 49 50 50 47 40 29 23 24 32 32 32 30 30 31 30 32 33 31 34 34 28 25 24 31 33 32 31 29 28 29 25 25 22
40 39 38 37 35 36 36 38 43 45 46 48 46 44 46 50 50 44 36 29 27 31 34 33 26 30 27 28 30 32 32 32 31 35 33 27 24 30 34 33 33 29 31 27 27 18 17
39 39 38 37 36 35 36 37 41 46 46 48 43 38 46 50 48 41 32 32 29 37 35 33 29 30 29 29 31 32 31 32 32 33 34 31 29 28 34 32 28 32 30 31 31 28 23
39 38 38 37 36 35 36 37 41 46 46 45 42 33 48 49 35 36 32 33 32 36 37 33 32 32 31 32 32 32 31 31 32 34 32 32 29 25 24 27 32 30 33 33 26 25 29
37 38 37 37 36 36 35 37 40 46 46 44 39 40 48 43 30 31 36 33 32 35 36 33 30 33 34 33 31 33 33 35 34 34 31 31 30 24 23 31 31 31 32 32 34 32 28
36 37 37 37 37 36 35 37 41 45 45 45 37 32 40 41 39 33 33 33 33 35 34 35 35 36 35 33 35 32 34 34 33 31 34 32 32 27 20 23 31 30 33 35 32 29 28
37 37 36 37 37 36 36 36 41 44 43 44 40 35 36 31 35 33 33 33 31 33 34 35 36 35 34 30 32 32 35 34 34 33 33 34 30 31 32 33 34 32 32 32 32 32 30
38 37 37 36 37 35 36 37 41 45 44 43 40 38 39 37 37 35 34 34 34 33 36 35 34 36 36 32 34 33 33 32 30 35 35 35 30 34 31 33 33 31 35 33 32 33 33
38 37 37 37 37 36 34 36 40 45 45 39 41 43 39 36 37 36 35 36 35 34 38 37 36 36 34 35 37 36 36 37 36 35 35 35 34 32 28 33 34 32 34 38 36 39 37
37 37 36 37 37 37 34 35 39 43 44 43 42 42 39 35 35 35 36 35 35 37 36 39 40 39 38 41 39 39 38 37 37 36 35 34 33 32 29 33 26 28 32 39 37 38 34
37 36 35 37 37 37 34 34 39 41 43 44 45 43 40 36 36 36 36 37 38 38 39 39 40 40 42 40 35 32 33 33 34 33 33 35 33 31 30 30 30 26 27 31 33 32 34
37 36 37 37 38 37 34 35 38 42 43 45 44 47 44 36 36 38 38 38 37 37 37 39 42 44 43 38 32 28 28 29 30 34 36 34 35 32 32 28 25 27 30 29 29 26 31
37 36 37 36 38 37 34 35 38 42 43 45 44 47 45 38 40 39 37 37 41 39 36 38 39 40 41 37 29 27 29 32 29 29 33 32 31 30 31 29 30 34 34 30 25 26 32
37 37 36 35 38 37 34 35 38 41 43 45 43 46 46 40 41 41 42 40 41 40 36 37 38 39 38 35 30 30 29 34 32 33 33 31 29 29 30 28 23 32 30 26 29 33 35
37 37 36 35 37 37 34 35 39 39 42 45 43 49 50 43 43 47 44 44 44 44 41 41 40 39 38 35 34 35 33 34 32 30 35 31 31 31 31 29 32 33 32 35 36 35 36
Wind_Speed
25 26 27 27 27 28 27 21 18 16 17 18 18 17 15 13 11 9 9 7 5 3 1 1 1 2 2 3 10 4 10 9 9 14 10 7 5 4 6 4 3 11 10 9 9 14 14
24 24 25 26 27 28 28 27 26 20 20 18 19 18 16 14 12 10 9 7 6 4 2 2 1 4 2 9 4 5 5 7 9 11 10 8 4 6 4 5 5 2 10 12 8 13 11
25 25 26 27 26 26 28 29 28 28 22 21 19 19 18 16 14 12 11 8 7 5 3 2 1 2 3 16 1 1 8 1 2 7 6 6 8 0 2 6 4 5 12 15 10 8 12
26 25 26 27 27 28 27 29 26 28 27 24 21 20 21 18 16 14 12 10 6 5 4 3 1 1 8 5 5 7 3 3 3 4 4 5 6 5 2 9 6 4 3 7 2 12 10
24 26 27 28 28 28 28 28 29 26 27 26 24 22 23 20 18 16 12 9 5 6 7 5 0 2 9 7 4 10 6 3 3 5 5 6 4 4 1 2 9 4 8 3 5 7 9
28 26 27 29 30 29 30 28 28 28 28 28 25 25 23 22 19 17 12 8 3 3 5 6 2 2 6 3 3 2 8 10 3 5 4 4 3 6 8 12 13 7 7 5 7 3 9
29 29 29 28 31 31 31 29 28 29 28 24 24 24 25 25 22 19 17 8 3 3 7 10 9 5 4 2 3 3 6 9 6 3 10 4 8 19 20 17 18 11 10 9 7 12 14
28 28 30 29 28 30 30 32 29 30 28 29 25 23 24 26 23 24 18 8 6 3 5 22 17 19 8 3 2 4 13 9 8 12 6 6 20 15 12 17 14 15 16 18 12 14 14
27 29 28 28 29 29 31 31 31 31 29 29 23 19 28 27 26 21 21 19 8 3 3 7 13 14 8 8 8 7 14 7 6 12 16 17 3 12 16 14 16 19 18 13 20 12 19
29 29 32 31 34 28 29 31 32 30 30 27 27 19 28 26 22 18 14 12 11 5 3 5 7 5 9 9 7 18 17 7 5 18 13 14 17 12 11 18 17 23 14 20 17 10 11
30 30 30 34 32 33 30 31 33 32 29 29 33 26 21 29 19 19 11 19 13 3 4 7 4 3 9 15 2 2 10 11 12 11 8 10 10 21 24 21 19 11 12 12 11 14 15
30 30 31 33 34 34 33 30 32 33 29 33 36 26 21 20 13 15 25 22 10 5 9 6 5 7 9 8 3 4 5 7 4 13 17 14 5 8 15 19 24 8 10 15 10 13 25
32 29 31 34 34 33 35 31 35 32 40 39 32 21 18 14 19 27 28 16 8 8 5 8 6 8 10 9 7 6 7 15 9 9 13 10 20 4 6 11 7 15 11 9 7 14 26
30 31 32 34 34 32 34 35 38 40 33 35 14 10 12 16 29 32 22 8 8 8 7 6 6 10 8 10 7 11 8 12 20 10 2 10 10 24 20 24 12 18 20 16 11 14 18
31 30 32 33 34 32 33 36 37 41 34 20 6 3 13 19 32 29 27 11 12 8 10 13 10 5 7 8 4 11 15 10 12 25 14 10 9 4 11 20 22 10 24 23 26 33 25
30 31 31 32 30 32 32 35 35 42 30 12 1 5 4 33 30 28 20 11 5 6 11 9 10 10 9 8 10 11 11 8 12 26 16 4 7 10 6 10 19 24 7 12 10 18 26
30 31 31 31 32 30 32 34 35 40 30 24 3 4 8 27 28 20 14 8 5 7 9 6 9 9 7 9 14 9 8 6 17 13 29 4 6 2 6 12 19 14 16 12 7 11 8
30 31 31 30 30 29 31 33 35 34 31 13 7 6 13 31 14 7 9 11 6 11 3 2 5 6 9 9 7 13 13 12 10 15 14 15 6 11 19 19 20 22 16 23 23 14 11
29 30 31 28 29 29 29 32 33 29 29 10 6 4 11 20 11 12 9 7 6 7 10 7 8 7 11 8 8 13 11 10 15 18 20 18 7 8 13 1 15 13 23 26 22 18 21
30 30 30 30 28 29 28 30 32 30 28 14 4 6 6 12 4 21 14 9 8 7 7 7 5 9 9 11 13 6 8 6 7 20 13 19 4 11 18 14 7 11 15 23 23 17 17
29 31 30 28 27 28 27 28 31 28 31 9 10 4 6 10 11 17 12 14 16 9 10 15 6 20 12 9 14 17 15 9 8 14 16 15 11 15 23 26 25 30 35 24 26 30 14
28 29 29 28 24 25 28 27 28 26 33 3 1 5 5 11 19 19 19 13 15 18 9 9 18 15 21 16 15 7 13 12 10 8 15 9 12 7 29 28 30 27 20 25 28 24 22
28 27 28 26 24 24 25 25 27 25 22 5 8 4 4 14 14 11 12 10 18 12 9 18 18 19 17 26 23 18 4 7 5 2 13 9 7 5 21 17 21 1 4 3 12 15 16
27 26 26 24 23 22 24 24 26 24 19 7 7 5 4 7 16 16 8 13 14 15 12 7 17 17 8 12 9 12 17 19 19 17 16 8 15 11 16 20 5 3 4 12 15 12 7
26 26 25 24 22 22 23 22 25 26 19 13 6 4 1 7 12 13 16 9 11 13 18 23 17 17 12 4 5 4 5 5 8 10 16 19 9 5 6 8 8 5 7 1 4 3 2
27 25 24 22 20 21 22 22 24 26 21 13 13 5 3 7 8 6 10 9 7 6 4 5 5 12 13 8 5 6 7 5 5 4 1 7 7 6 5 5 3 2 3 5 2 2 4
27 24 23 21 20 20 21 23 24 25 20 14 9 8 3 3 1 6 4 4 4 2 4 4 5 4 4 8 5 5 5 4 8 7 6 7 5 13 7 5 10 10 8 6 2 1 4
26 23 21 21 20 19 20 21 24 21 19 11 13 11 1 2 3 5 7 5 4 3 3 2 4 3 5 5 4 4 4 9 4 5 7 9 13 8 7 5 6 5 6 3 2 2 3
25 21 21 18 20 18 20 20 23 19 18 16 5 2 3 1 1 2 3 5 6 6 3 4 4 1 7 6 3 3 2 4 5 7 4 8 9 7 12 7 4 4 3 3 2 2 2
Wind_Direction
346 343 343 334 333 340 352 299 284 281 274 269 242 232 233 231 239 245 251 255 256 262 291 293 236 64 121 238 249 288 331 342 163 170 181 176 199 181 210 216 277 248 269 279 286 283 281
351 344 340 341 338 334 332 331 329 284 277 265 258 234 229 225 227 230 240 248 254 249 253 277 227 114 131 236 253 276 17 3 128 164 190 174 196 225 275 250 229 255 292 289 289 283 282
348 345 344 340 331 330 328 328 335 331 283 275 259 245 221 214 215 218 228 236 245 229 220 251 221 147 207 245 218 177 8 323 305 172 179 196 201 50 329 285 284 287 289 292 267 258 265
344 344 341 339 334 333 327 323 320 324 325 279 264 248 221 208 206 210 215 225 227 214 211 224 151 135 248 256 287 288 158 256 253 202 153 154 169 208 196 319 328 284 267 264 285 222 224
345 341 338 336 331 330 322 323 322 315 323 328 272 250 229 203 201 200 203 219 199 225 207 186 119 156 262 310 240 252 173 168 121 163 169 155 151 194 211 283 292 245 254 216 324 279 248
345 338 338 334 331 326 324 320 317 315 311 327 327 262 237 204 196 193 182 153 181 217 226 177 308 281 257 229 196 207 169 175 138 130 141 161 143 218 213 220 236 236 244 239 219 290 334
344 341 336 335 328 325 325 319 316 311 312 306 313 311 243 210 188 179 145 118 127 237 217 198 198 229 268 234 167 164 148 121 124 125 191 187 205 221 229 223 249 282 281 268 291 305 317
342 341 337 330 325 325 320 321 314 311 308 306 305 308 268 210 186 169 148 171 195 142 222 230 243 225 269 37 338 153 144 158 164 195 173 213 236 223 224 230 237 250 262 272 281 264 260
338 335 333 327 325 320 323 319 314 312 309 305 303 298 302 214 179 166 187 178 150 123 282 269 219 224 222 224 235 210 169 149 180 194 202 216 188 224 217 228 238 245 248 253 254 288 281
338 334 336 332 326 321 317 320 318 312 314 309 302 281 288 206 177 160 196 165 131 101 286 235 195 230 176 195 257 207 185 148 179 205 204 238 236 246 214 232 220 253 230 237 245 253 261
332 336 331 329 326 326 318 322 319 312 299 315 313 273 289 210 141 159 176 151 133 94 262 137 150 156 158 168 125 93 174 202 201 182 176 220 211 217 230 228 220 242 264 239 242 238 262
327 331 329 329 327 327 322 322 320 316 314 307 302 269 274 208 154 158 138 134 121 128 238 162 137 166 163 202 171 121 159 220 45 224 221 230 222 207 221 234 233 234 244 282 245 241 247
328 330 328 328 326 328 322 322 322 323 319 303 284 247 299 174 167 135 136 146 137 202 148 169 173 170 182 180 212 178 162 191 196 205 222 232 235 244 200 223 224 216 236 258 243 219 252
328 331 328 326 327 329 322 330 326 325 312 309 256 270 268 187 143 143 145 160 185 192 180 135 138 143 178 173 220 201 206 209 214 210 181 221 262 214 208 212 205 200 203 215 245 249 273
329 331 323 324 326 327 328 329 330 328 321 310 291 238 229 160 147 151 161 192 197 193 157 145 136 162 200 200 215 190 214 220 215 203 206 204 255 194 201 206 200 192 220 231 256 269 279
329 329 324 322 331 326 331 330 335 335 329 329 342 176 239 150 147 160 172 184 197 152 129 145 165 180 187 190 189 196 196 226 223 201 206 234 274 225 181 190 210 222 167 221 209 254 255
331 331 326 326 331 331 331 332 339 335 340 331 279 150 181 160 155 172 187 166 173 158 131 161 176 161 189 184 205 196 222 262 211 197 191 181 221 243 132 211 207 204 230 228 284 223 256
333 332 329 328 327 333 333 336 342 349 342 318 150 180 162 152 154 184 171 151 141 163 152 106 132 145 188 191 230 217 224 227 193 155 184 208 249 253 246 234 211 215 234 230 233 245 236
328 332 328 329 328 331 333 337 340 349 346 325 147 118 175 146 152 148 144 141 145 143 188 173 188 190 201 212 228 226 224 239 230 173 179 177 229 279 293 239 229 231 233 234 239 258 258
332 330 329 333 330 332 336 336 339 349 350 332 122 161 121 175 215 160 140 164 166 197 173 172 181 177 198 219 216 252 230 274 220 201 196 170 230 222 244 271 300 259 254 226 218 240 255
328 328 332 334 330 331 336 338 340 350 348 323 186 161 159 169 160 163 160 160 190 186 216 195 226 215 211 218 224 227 229 272 289 215 193 178 258 249 261 273 269 258 255 235 217 227 233
328 328 330 332 332 334 333 339 341 356 347 312 323 160 171 126 140 159 181 202 192 207 187 206 221 211 215 220 211 213 215 209 228 186 180 208 261 301 277 276 279 267 255 231 223 220 236
328 328 327 330 334 330 333 338 342 360 356 336 334 316 133 154 159 164 185 168 206 200 226 223 217 233 214 230 231 232 252 296 280 280 193 188 228 265 285 298 314 79 269 119 161 178 210
328 328 326 331 332 328 333 338 341 350 352 309 287 275 124 168 179 204 187 203 214 202 221 240 228 233 222 247 236 232 272 284 281 265 222 222 230 262 290 304 14 62 187 192 148 256 48
327 328 327 330 332 327 332 336 337 342 344 327 304 268 238 144 178 178 204 199 232 240 241 245 233 243 176 134 117 157 229 233 237 222 197 210 212 277 279 307 290 49 4 50 182 217 322
327 325 329 330 330 326 334 333 333 338 349 335 308 247 309 131 197 124 176 192 216 234 244 232 258 230 197 176 184 181 181 169 178 187 153 170 222 213 340 320 336 239 355 334 266 109 353
327 325 326 327 330 327 334 330 331 336 349 337 281 286 311 121 113 149 170 176 172 200 239 276 277 112 171 160 168 166 179 170 169 189 164 160 203 230 253 277 284 271 310 311 68 350 334
322 319 324 324 328 323 331 325 327 338 347 337 289 274 306 83 183 190 163 172 174 209 260 294 266 191 157 188 187 172 172 195 170 198 178 169 172 197 206 247 290 345 337 25 294 317 329
322 323 320 321 322 322 327 321 326 336 341 337 280 301 244 341 269 303 235 195 213 203 189 181 307 256 179 190 197 146 163 172 174 200 215 206 194 188 196 220 269 318 311 331 323 350 355